Airfield :
LOGIN :

Register | Disclaimer

   EN    FR    IT 

 










Legend :    VFR   Marginal VFR   IFR   Intensive IFR   Very Intensive IFR
Visi :
Ceiling :
>= 8 km
>= 3000ft
5 to 8 km
1000 to 3000 ft
1500m to 5 km
500 to 1000 ft
800 to 1500m
200 to 500 ft
< 800m
< 200 ft
Symbols :   Thunderstorms  Fog  Heavy snow  Heavy precipitations  Wind > 20 kt
SIGMETs :     Misc.  Thunderstorms  Icing  Turbulence  Mountain Waves  Volcanic Ashes







- Airport Elevation : 80 ft
- IATA code : LPL
- Download approach charts


EGGP - Liverpool John Lennon

CURRENT METAR :
  • 210250Z 13004KT CAVOK 10/08 Q1018

EXPIRED METARs :
  • 210220Z 13003KT CAVOK 11/09 Q1018
  • 210150Z 15002KT CAVOK 11/09 Q1018
  • 210120Z 11002KT CAVOK 11/05 Q1018
  • 210050Z 03002KT CAVOK 12/05 Q1019
  • 210020Z 04002KT CAVOK 12/06 Q1019

TAF TAF EGGP
Valid from the 21 at 00:00 until the 22 at 00:00 UTC


202254Z 2100/2124 VRB04KT 9999 FEW045
PROB30 2101/2109 6000
PROB30
TEMPO 2114/2120 8000 SHRA
BECMG 2118/2121 33010KT
ATIS : +44 151 907 2000 (option 5 or ext 5150)
Met : +44 871 750 5150
No reported NOTAMs for that airfield.



MET'MAP, your aeronautical weather chart ! - Copyright ORBIFLY December 2007 - Disclaimer

ORBIFLY MET'MAP TEAM :

Programming & Development : Alexandra Zaïnal
Concept & Development : Baudouin d'Aumeries
Co-Development & Prog : Marc-Olivier Méhu
Technical & hardware support : Manuel Goepfert

Contact : metmap@orbifly.com




SOURCES & CREDITS :

   NOAA